Location: Foligno
(42.9600°N, 12.7050°E)
Time: 17:45:12
(UTC+02:00)

ISS - Pass Details

Date: 28 May 2020
Orbit: 417 x 420 km, 51.6° (Epoch: 26 May)

Event Time Altitude Azimuth Distance (km) Brightness Sun altitude
Rises 23:58:14 0° 299° (WNW) 2,366 0.7 -23.7°
Reaches altitude 10° 00:00:23 10° 294° (WNW) 1,499 -0.5 -23.8°
Enters shadow 00:01:47 22° 283° (WNW) 970 -1.7 -23.9°
